Location: *
(46.0770°N, 1.6444°E)
Time: 00:07:24
(UTC+00:00)

SPOT 1/Viking Rocket - Pass Details

Date: 16 September 2019
Orbit: 777 x 795 km, 98.5° (Epoch: 20 October)

Event Time Altitude Azimuth Distance (km) Brightness Sun altitude
Exits shadow 21:09:51 50° 5° (N) 1,005 4.2 -30.2°
Drops below altitude 10° 21:13:42 10° 350° (N) 2,354 6.6 -30.7°
Sets 21:16:01 0° 348° (NNW) 3,284 7.5 -31.0°
